Mr Lloyd — WDB9843 — position and weather

sailwx.info

Track history (hours):
 
Tides and Currents Weather Stations Pressure Air Temp Water Temp Dewpoint Dewpoint Depression Visibility Wind Speed Wind Dir Waves Ship Positions

Mr Lloyd

More information available from US FCC via Universal Licensing System and Coast Guard Vessel Documentation Center.

Last reported at 2014-Aug-18 18:04 UTC. Time now 2014-Aug-21 08:19 UTC.
Position N 29°28' W 091°17'.

Length 48 m; draft 2.5 m.

Type: Passenger vessel. MMSI: 366983730.

Date/timePositionNaut miles runAvg speedWind from/ knotsBaromVisibWave heightAir tempDewpointWater temp
2014-Aug-18 18:04N 29°28' W 091°17'713.5
2014-Aug-18 17:33N 29°34' W 091°14'8 7.6
2014-Aug-18 16:33N 29°41' W 091°11'0 0.0
2014-Aug-18 15:33N 29°41' W 091°11'0 0.0
2014-Aug-18 14:33N 29°41' W 091°11'0 0.0
2014-Aug-18 13:33N 29°41' W 091°11'0 0.0
2014-Aug-18 12:33N 29°41' W 091°11'6 6.0
2014-Aug-18 11:33N 29°36' W 091°14'1110.7
2014-Aug-18 10:34N 29°26' W 091°20'7 0.3
2014-Aug-17 09:33N 29°32' W 091°16'1010.1
2014-Aug-17 08:34N 29°41' W 091°11'0 0.0
2014-Aug-17 07:33N 29°41' W 091°11'0 0.0
2014-Aug-17 06:33N 29°41' W 091°11'0 0.0
2014-Aug-17 05:33N 29°41' W 091°11'0 0.0
2014-Aug-17 04:33N 29°41' W 091°11'0 0.0
2014-Aug-17 03:33N 29°41' W 091°11'0 0.0
2014-Aug-17 02:33N 29°41' W 091°11'0 0.0
2014-Aug-17 01:33N 29°41' W 091°11'0 0.0
2014-Aug-17 00:33N 29°41' W 091°11'0 0.0
2014-Aug-16 23:33N 29°41' W 091°11'0 0.0
2014-Aug-16 22:33N 29°41' W 091°11'0 0.0
2014-Aug-16 21:33N 29°41' W 091°11'0 0.0
2014-Aug-16 20:33N 29°41' W 091°11'0 0.0
2014-Aug-16 19:33N 29°41' W 091°11'0 0.0
2014-Aug-16 18:33N 29°41' W 091°11'0 0.0
2014-Aug-16 17:33N 29°41' W 091°11'0 0.0
2014-Aug-16 16:33N 29°41' W 091°11'0 0.0
2014-Aug-16 15:33N 29°41' W 091°11'0 0.0
2014-Aug-16 14:33N 29°41' W 091°11'0 0.0
2014-Aug-16 13:33N 29°41' W 091°11'0 0.0
2014-Aug-16 12:33N 29°41' W 091°11'0 0.0
2014-Aug-16 11:33N 29°41' W 091°11'0 0.0
2014-Aug-16 10:33N 29°41' W 091°11'7 6.7
2014-Aug-16 09:34N 29°35' W 091°14'1514.8
2014-Aug-16 08:33N 29°22' W 091°23'5 0.3
2014-Aug-15 13:17N 29°18' W 091°26'1317.8
2014-Aug-15 12:33N 29°28' W 091°17'1413.5
2014-Aug-15 11:34N 29°41' W 091°13'1 0.8
2014-Aug-15 10:34N 29°42' W 091°13'0 0.0
2014-Aug-15 09:33N 29°42' W 091°13'2 1.6
2014-Aug-15 08:34N 29°41' W 091°11'0 0.0
2014-Aug-15 07:34N 29°41' W 091°11'0 0.0
2014-Aug-15 06:34N 29°41' W 091°11'0 0.0
2014-Aug-15 05:33N 29°41' W 091°11'6 5.6
2014-Aug-15 04:33N 29°37' W 091°15'1313.2
2014-Aug-15 03:33N 29°25' W 091°21'8 0.4
2014-Aug-14 06:26N 29°18' W 091°27'1517.0
2014-Aug-14 05:33N 29°30' W 091°16'1211.7
2014-Aug-14 04:33N 29°41' W 091°11'0 0.1
2014-Aug-14 03:33N 29°41' W 091°11'0 0.0
2014-Aug-14 02:34N 29°41' W 091°11'0 0.0
2014-Aug-14 01:33N 29°41' W 091°11'0 0.0
2014-Aug-14 00:33N 29°41' W 091°11'0 0.0
2014-Aug-13 23:34N 29°41' W 091°11'0 0.0
2014-Aug-13 22:33N 29°41' W 091°11'0 0.0
2014-Aug-13 21:33N 29°41' W 091°11'0 0.0
2014-Aug-13 20:33N 29°41' W 091°11'0 0.0
2014-Aug-13 19:33N 29°41' W 091°11'0 0.0
2014-Aug-13 18:33N 29°41' W 091°11'0 0.0
2014-Aug-13 17:33N 29°41' W 091°11'0 0.0
2014-Aug-13 16:33N 29°41' W 091°11'0 0.0
2014-Aug-13 15:33N 29°41' W 091°11'3 3.2
2014-Aug-13 14:34N 29°40' W 091°14'1312.8
2014-Aug-13 13:33N 29°27' W 091°18'10 0.9
2014-Aug-13 03:14N 29°20' W 091°25'1218.2
2014-Aug-13 02:33N 29°29' W 091°16'1312.6
2014-Aug-13 01:33N 29°41' W 091°13'1 1.2
2014-Aug-13 00:33N 29°41' W 091°11'0 0.0
2014-Aug-12 23:33N 29°41' W 091°11'0 0.0
2014-Aug-12 22:33N 29°41' W 091°11'7 7.0
2014-Aug-12 21:33N 29°34' W 091°14'1414.2
2014-Aug-12 20:32N 29°22' W 091°23'1 0.0
2014-Aug-12 03:18N 29°22' W 091°23'1418.2
2014-Aug-12 02:32N 29°33' W 091°14'8 8.5
2014-Aug-12 01:34N 29°41' W 091°11'0 0.0
2014-Aug-12 00:34N 29°41' W 091°11'0 0.0
2014-Aug-11 23:33N 29°41' W 091°11'0 0.0
2014-Aug-11 22:34N 29°41' W 091°11'0 0.0
2014-Aug-11 21:33N 29°41' W 091°11'1110.8
2014-Aug-11 20:34N 29°31' W 091°16'8 0.4
2014-Aug-11 01:32N 29°24' W 091°21'1615.9
2014-Aug-11 00:34N 29°39' W 091°14'4 3.7
2014-Aug-10 23:33N 29°41' W 091°11'0 0.0
2014-Aug-10 22:33N 29°41' W 091°11'0 0.0
2014-Aug-10 21:34N 29°41' W 091°11'0 0.0
2014-Aug-10 20:33N 29°41' W 091°11'0 0.1
2014-Aug-10 19:33N 29°41' W 091°11'0 0.0
2014-Aug-10 18:33N 29°41' W 091°11'2 1.6
2014-Aug-10 17:33N 29°42' W 091°13'0 0.0
2014-Aug-10 16:33N 29°42' W 091°13'0 0.0
2014-Aug-10 15:33N 29°42' W 091°13'6 5.6
2014-Aug-10 14:33N 29°37' W 091°15'10 9.7
2014-Aug-10 13:33N 29°27' W 091°17'4 0.4
2014-Aug-10 03:11N 29°24' W 091°21'1218.6
2014-Aug-10 02:34N 29°34' W 091°14'7 7.5
2014-Aug-10 01:33N 29°41' W 091°11'0 0.0
2014-Aug-10 00:34N 29°41' W 091°11'0 0.0
2014-Aug-09 23:34N 29°41' W 091°11'0 0.0
2014-Aug-09 22:34N 29°41' W 091°11'0 0.0
2014-Aug-09 21:33N 29°41' W 091°11'0 0.0
2014-Aug-09 20:34N 29°41' W 091°11'0 0.0
2014-Aug-09 19:34N 29°41' W 091°11'0 0.0
2014-Aug-09 18:33N 29°41' W 091°11'0 0.0
2014-Aug-09 17:34N 29°41' W 091°11'0 0.0
2014-Aug-09 16:33N 29°41' W 091°11'4 4.3
2014-Aug-09 15:34N 29°38' W 091°15'9 9.5
2014-Aug-09 14:33N 29°29' W 091°16'  
Track history (hours):
 
Tides and Currents Weather Stations Pressure Air Temp Water Temp Dewpoint Dewpoint Depression Visibility Wind Speed Wind Dir Waves Ship Positions

Mr Lloyd

More information available from US FCC via Universal Licensing System and Coast Guard Vessel Documentation Center.

Last reported at 2014-Aug-18 18:04 UTC. Time now 2014-Aug-21 08:19 UTC.
Position N 29°28' W 091°17'.

Length 48 m; draft 2.5 m.

Type: Passenger vessel. MMSI: 366983730.

Date/timePositionNaut miles runAvg speedWind from/ knotsBaromVisibWave heightAir tempDewpointWater temp
2014-Aug-18 18:04N 29°28' W 091°17'713.5
2014-Aug-18 17:33N 29°34' W 091°14'8 7.6
2014-Aug-18 16:33N 29°41' W 091°11'0 0.0
2014-Aug-18 15:33N 29°41' W 091°11'0 0.0
2014-Aug-18 14:33N 29°41' W 091°11'0 0.0
2014-Aug-18 13:33N 29°41' W 091°11'0 0.0
2014-Aug-18 12:33N 29°41' W 091°11'6 6.0
2014-Aug-18 11:33N 29°36' W 091°14'1110.7
2014-Aug-18 10:34N 29°26' W 091°20'7 0.3
2014-Aug-17 09:33N 29°32' W 091°16'1010.1
2014-Aug-17 08:34N 29°41' W 091°11'0 0.0
2014-Aug-17 07:33N 29°41' W 091°11'0 0.0
2014-Aug-17 06:33N 29°41' W 091°11'0 0.0
2014-Aug-17 05:33N 29°41' W 091°11'0 0.0
2014-Aug-17 04:33N 29°41' W 091°11'0 0.0
2014-Aug-17 03:33N 29°41' W 091°11'0 0.0
2014-Aug-17 02:33N 29°41' W 091°11'0 0.0
2014-Aug-17 01:33N 29°41' W 091°11'0 0.0
2014-Aug-17 00:33N 29°41' W 091°11'0 0.0
2014-Aug-16 23:33N 29°41' W 091°11'0 0.0
2014-Aug-16 22:33N 29°41' W 091°11'0 0.0
2014-Aug-16 21:33N 29°41' W 091°11'0 0.0
2014-Aug-16 20:33N 29°41' W 091°11'0 0.0
2014-Aug-16 19:33N 29°41' W 091°11'0 0.0
2014-Aug-16 18:33N 29°41' W 091°11'0 0.0
2014-Aug-16 17:33N 29°41' W 091°11'0 0.0
2014-Aug-16 16:33N 29°41' W 091°11'0 0.0
2014-Aug-16 15:33N 29°41' W 091°11'0 0.0
2014-Aug-16 14:33N 29°41' W 091°11'0 0.0
2014-Aug-16 13:33N 29°41' W 091°11'0 0.0
2014-Aug-16 12:33N 29°41' W 091°11'0 0.0
2014-Aug-16 11:33N 29°41' W 091°11'0 0.0
2014-Aug-16 10:33N 29°41' W 091°11'7 6.7
2014-Aug-16 09:34N 29°35' W 091°14'1514.8
2014-Aug-16 08:33N 29°22' W 091°23'5 0.3
2014-Aug-15 13:17N 29°18' W 091°26'1317.8
2014-Aug-15 12:33N 29°28' W 091°17'1413.5
2014-Aug-15 11:34N 29°41' W 091°13'1 0.8
2014-Aug-15 10:34N 29°42' W 091°13'0 0.0
2014-Aug-15 09:33N 29°42' W 091°13'2 1.6
2014-Aug-15 08:34N 29°41' W 091°11'0 0.0
2014-Aug-15 07:34N 29°41' W 091°11'0 0.0
2014-Aug-15 06:34N 29°41' W 091°11'0 0.0
2014-Aug-15 05:33N 29°41' W 091°11'6 5.6
2014-Aug-15 04:33N 29°37' W 091°15'1313.2
2014-Aug-15 03:33N 29°25' W 091°21'8 0.4
2014-Aug-14 06:26N 29°18' W 091°27'1517.0
2014-Aug-14 05:33N 29°30' W 091°16'1211.7
2014-Aug-14 04:33N 29°41' W 091°11'0 0.1
2014-Aug-14 03:33N 29°41' W 091°11'0 0.0
2014-Aug-14 02:34N 29°41' W 091°11'0 0.0
2014-Aug-14 01:33N 29°41' W 091°11'0 0.0
2014-Aug-14 00:33N 29°41' W 091°11'0 0.0
2014-Aug-13 23:34N 29°41' W 091°11'0 0.0
2014-Aug-13 22:33N 29°41' W 091°11'0 0.0
2014-Aug-13 21:33N 29°41' W 091°11'0 0.0
2014-Aug-13 20:33N 29°41' W 091°11'0 0.0
2014-Aug-13 19:33N 29°41' W 091°11'0 0.0
2014-Aug-13 18:33N 29°41' W 091°11'0 0.0
2014-Aug-13 17:33N 29°41' W 091°11'0 0.0
2014-Aug-13 16:33N 29°41' W 091°11'0 0.0
2014-Aug-13 15:33N 29°41' W 091°11'3 3.2
2014-Aug-13 14:34N 29°40' W 091°14'1312.8
2014-Aug-13 13:33N 29°27' W 091°18'10 0.9
2014-Aug-13 03:14N 29°20' W 091°25'1218.2
2014-Aug-13 02:33N 29°29' W 091°16'1312.6
2014-Aug-13 01:33N 29°41' W 091°13'1 1.2
2014-Aug-13 00:33N 29°41' W 091°11'0 0.0
2014-Aug-12 23:33N 29°41' W 091°11'0 0.0
2014-Aug-12 22:33N 29°41' W 091°11'7 7.0
2014-Aug-12 21:33N 29°34' W 091°14'1414.2
2014-Aug-12 20:32N 29°22' W 091°23'1 0.0
2014-Aug-12 03:18N 29°22' W 091°23'1418.2
2014-Aug-12 02:32N 29°33' W 091°14'8 8.5
2014-Aug-12 01:34N 29°41' W 091°11'0 0.0
2014-Aug-12 00:34N 29°41' W 091°11'0 0.0
2014-Aug-11 23:33N 29°41' W 091°11'0 0.0
2014-Aug-11 22:34N 29°41' W 091°11'0 0.0
2014-Aug-11 21:33N 29°41' W 091°11'1110.8
2014-Aug-11 20:34N 29°31' W 091°16'8 0.4
2014-Aug-11 01:32N 29°24' W 091°21'1615.9
2014-Aug-11 00:34N 29°39' W 091°14'4 3.7
2014-Aug-10 23:33N 29°41' W 091°11'0 0.0
2014-Aug-10 22:33N 29°41' W 091°11'0 0.0
2014-Aug-10 21:34N 29°41' W 091°11'0 0.0
2014-Aug-10 20:33N 29°41' W 091°11'0 0.1
2014-Aug-10 19:33N 29°41' W 091°11'0 0.0
2014-Aug-10 18:33N 29°41' W 091°11'2 1.6
2014-Aug-10 17:33N 29°42' W 091°13'0 0.0
2014-Aug-10 16:33N 29°42' W 091°13'0 0.0
2014-Aug-10 15:33N 29°42' W 091°13'6 5.6
2014-Aug-10 14:33N 29°37' W 091°15'10 9.7
2014-Aug-10 13:33N 29°27' W 091°17'4 0.4
2014-Aug-10 03:11N 29°24' W 091°21'1218.6
2014-Aug-10 02:34N 29°34' W 091°14'7 7.5
2014-Aug-10 01:33N 29°41' W 091°11'0 0.0
2014-Aug-10 00:34N 29°41' W 091°11'0 0.0
2014-Aug-09 23:34N 29°41' W 091°11'0 0.0
2014-Aug-09 22:34N 29°41' W 091°11'0 0.0
2014-Aug-09 21:33N 29°41' W 091°11'0 0.0
2014-Aug-09 20:34N 29°41' W 091°11'0 0.0
2014-Aug-09 19:34N 29°41' W 091°11'0 0.0
2014-Aug-09 18:33N 29°41' W 091°11'0 0.0
2014-Aug-09 17:34N 29°41' W 091°11'0 0.0
2014-Aug-09 16:33N 29°41' W 091°11'4 4.3
2014-Aug-09 15:34N 29°38' W 091°15'9 9.5
2014-Aug-09 14:33N 29°29' W 091°16'  

Dump ship's entire track history